Flag for Germany Weather past 2 weeks in Waldkraiburg, Bavaria, Germany

Now
60 °F

Overcast.


Feels Like: 60 °F
Forecast: 49 / 60 °F
Wind: 5 mph from West

Location: Muenchen Flughafen

Current Time: Sep 5, 2015 at 2:25:37 PM

Latest Report: Sep 5, 2015 at 2:00 PM


Visibility: 31 mi

Pressure: 30.01 "Hg

Humidity: 59%

Dew point: 46 °F

Location of WaldkraiburgLocation

Historic Weather in Waldkraiburg — Graph

°F

Waldkraiburg temperature yesterday

Maximum temperature yesterday: 67 °F (at 6:00 PM)
Minimum temperature yesterday: 53 °F (at 7:00 AM)
Average temperature yesterday: 60 °F

Past Weeks' High & Low Weather Summary

 TemperatureHumidityPressure
High91 °F (Aug 30, 4:00 PM)100% (Aug 22, 2:00 AM)30.23 "Hg (Aug 22, 2:00 AM)
Low45 °F (Aug 26, 7:00 AM)27% (Aug 26, 5:00 PM)29.63 "Hg (Aug 24, 7:00 PM)
Average66 °F72%29.99 "Hg
* Reported Aug 21 1:00 PM — Sep 5 1:00 PM, Waldkraiburg, Weather by CustomWeather, © 2015

Note: Actual official high and low records may vary slightly from our data, if they occured in-between our weather recording intervals... More about our weather records

Advertising

Waldkraiburg weather history for previous 24 hours

 ConditionsComfort  
Time TempWeatherWind HumidityBarometerVisibility
1:00 PM
Sat, Sep 5
59 °FOvercast.7 mph62%30.01 "Hg31 mi
12:00 PM58 °FPartly sunny.6 mph60%30.03 "Hg31 mi
11:00 AM59 °FOvercast.5 mph61%30.03 "Hg31 mi
10:00 AM57 °FOvercast.3 mph67%30.03 "Hg31 mi
9:00 AM55 °FOvercast.3 mph70%30.02 "Hg31 mi
8:00 AM54 °FOvercast.3 mph75%30.02 "Hg31 mi
7:00 AM54 °FOvercast.3 mph71%30.01 "Hg31 mi
5:00 AM56 °FOvercast.2 mph66%29.98 "Hg31 mi
4:00 AM56 °FOvercast.2 mph68%29.98 "Hg31 mi
3:00 AM56 °FOvercast.1 mph71%29.97 "Hg31 mi
2:00 AM57 °FOvercast.1 mph75%29.98 "Hg31 mi
1:00 AM58 °FOvercast.1 mph84%29.97 "Hg31 mi
11:00 PM
Fri, Sep 4
58 °FOvercast.2 mph80%29.97 "Hg31 mi
10:00 PM60 °FPassing clouds.3 mph79%29.96 "Hg31 mi
9:00 PM62 °FPassing clouds.2 mph70%29.94 "Hg31 mi
8:00 PM64 °FPassing clouds.1 mph61%29.93 "Hg37 mi
7:00 PM66 °FScattered clouds.1 mph55%29.93 "Hg37 mi
6:00 PM67 °FScattered clouds.2 mph47%29.93 "Hg37 mi
5:00 PM65 °FScattered clouds.3 mph52%29.94 "Hg31 mi
4:00 PM66 °FScattered clouds.5 mph49%29.96 "Hg31 mi
3:00 PM66 °FPartly sunny.2 mph51%29.98 "Hg31 mi
2:00 PM64 °FPartly sunny.3 mph60%30.00 "Hg25 mi
Weather by CustomWeather, © 2015

See weather overviewHow to use our weather pages